64013000, 5301503, 2017-01-01 15:00:00, 13.35740, 109.26680,   0,   8,   5, -5.00, 999.80, 14.80, 0,   1, 255, 0.000
64013000, 5301503, 2017-01-02 03:00:00, 13.35720, 109.26680, 662,   7,  12, -5.00, 999.60, 14.80, 1,   1, 255, 0.000
64013000, 5301503, 2017-01-02 04:00:00, 13.35720, 109.26680,   0,   8,   6, -5.00, 1000.00, 14.80, 1,  16, 255, 0.000
64015370, 5301502, 2016-12-31 00:00:00, 6.38440, 103.31120,  63,  11,  12, 35.95, 1001.90, 10.00, 2,  12, 255, 0.000
64015370, 5301502, 2016-12-31 01:00:00, 6.38440, 103.31120, 123,   0,  12, 35.95, 1002.20, 10.00, 1,   9, 255, 0.000
64015370, 5301502, 2016-12-31 02:00:00, 6.38440, 103.31120, 183,   0,  12, 35.95, 1001.90, 10.00, 1,   8, 255, 0.000
64015370, 5301502, 2016-12-31 03:00:00, 6.38440, 103.31120, 243,   0,  12, 35.95, 1000.20, 9.80, 1,  20, 255, 0.000
64015370, 5301502, 2016-12-31 04:00:00, 6.35500, 103.26960,   0,  11,   1, 35.95, 996.10, 9.20, 1,  10, 255, 0.000
64015370, 5301502, 2016-12-31 05:00:00, 6.35500, 103.26960,  63,  11,  12, 35.95, 996.50, 8.40, 1,  13, 255, 0.000
64015370, 5301502, 2016-12-31 06:00:00, 6.35500, 103.26960, 123,   0,  12, 35.95, 996.30, 8.20, 1,   7, 255, 0.000
64015370, 5301502, 2016-12-31 07:00:00, 6.35500, 103.26960, 183,   0,  12, 35.95, 993.50, 8.40, 1,   9, 255, 0.000
64015370, 5301502, 2016-12-31 08:00:00, 6.31040, 103.26860,   0,  11,   2, 35.95, 992.50, 8.60, 1,   8, 255, 0.000
64015370, 5301502, 2016-12-31 09:00:00, 6.31040, 103.26860,  63,   0,  12, 35.95, 990.20, 8.80, 1,   9, 255, 0.000
64015370, 5301502, 2016-12-31 10:00:00, 6.31040, 103.26860, 123,   0,  12, 35.95, 993.00, 8.80, 1,  10, 255, 0.000
64015370, 5301502, 2016-12-31 11:00:00, 6.26120, 103.27520,   0,  11,   1, 35.95, 992.60, 8.80, 4,   9, 255, 0.000
64015370, 5301502, 2016-12-31 12:00:00, 6.24500, 103.27520,   0,  11,   1, 35.95, 991.10, 8.80, 4,  12, 255, 0.000
64015370, 5301502, 2016-12-31 13:00:00, 6.23020, 103.27440,   0,  11,   1, 35.95, 997.20, 8.80, 3,  12, 255, 0.000
64015370, 5301502, 2016-12-31 14:00:00, 6.21820, 103.27320,   0,  12,   2, 35.95, 999.00, 8.80, 3,  11, 255, 0.000
64015370, 5301502, 2016-12-31 15:00:00, 6.20860, 103.27200,   0,  11,   1, 35.95, 1000.40, 8.80, 1,  10, 255, 0.000
64015370, 5301502, 2016-12-31 16:00:00, 6.20180, 103.27020,   0,  11,   1, 35.95, 1001.40, 8.80, 1,   7, 255, 0.000
64015370, 5301502, 2016-12-31 17:00:00, 6.19680, 103.26660,   0,  11,   1, 35.95, 1000.30, 8.60, 1,   7, 255, 0.000
64015370, 5301502, 2016-12-31 18:00:00, 6.19300, 103.26200,   0,  11,   1, 35.95, 1001.10, 8.40, 0,  12, 255, 0.000
64015370, 5301502, 2016-12-31 19:00:00, 6.19000, 103.25500,   0,  11,   1, 35.95, 999.40, 8.40, 1,  11, 255, 0.000
64015370, 5301502, 2016-12-31 20:00:00, 6.18720, 103.24700,   0,  11,   1, 35.95, 997.30, 8.20, 1,  11, 255, 0.000
64015370, 5301502, 2016-12-31 21:00:00, 6.18480, 103.23760,   0,  10,   1, 35.95, 998.00, 8.20, 0,  10, 255, 0.000
64015370, 5301502, 2016-12-31 22:00:00, 6.18140, 103.22700,   0,  11,   1, 35.95, 995.60, 8.20, 0,  10, 255, 0.000
64015370, 5301502, 2016-12-31 23:00:00, 6.17840, 103.21560,   0,  11,   1, 35.95, 995.60, 8.00, 0,  13, 255, 0.000
64015370, 5301502, 2017-01-01 00:00:00, 6.17600, 103.20320,   0,  11,   1, 35.95, 994.80, 8.00, 0,   9, 255, 0.000
64015370, 5301502, 2017-01-01 01:00:00, 6.17360, 103.19120,   0,  11,   1, 35.95, 993.90, 8.00, 0,  11, 255, 0.000
64015370, 5301502, 2017-01-01 02:00:00, 6.17080, 103.18000,   0,  12,   2, 35.95, 993.10, 8.20, 1,   8, 255, 0.000
64015370, 5301502, 2017-01-01 03:00:00, 6.16880, 103.17060,   0,  11,   1, 35.95, 994.40, 8.20, 1,  11, 255, 0.000
64015370, 5301502, 2017-01-01 04:00:00, 6.16580, 103.16300,   0,  11,   2, 35.95, 991.10, 7.80, 1,   1, 255, 0.000
64015370, 5301502, 2017-01-01 05:00:00, 6.16160, 103.15760,   0,  11,   1, 35.95, 988.90, 7.80, 0,  11, 255, 0.000
64015370, 5301502, 2017-01-01 06:00:00, 6.15580, 103.15460,   0,  11,   1, 35.95, 989.60, 7.60, 0,  18, 255, 0.000
64015370, 5301502, 2017-01-01 07:00:00, 6.14720, 103.15340,   0,  11,   1, 35.95, 991.00, 7.80, 0,  11, 255, 0.000
64015370, 5301502, 2017-01-01 08:00:00, 6.13580, 103.15360,   0,  11,   1, 35.95, 989.10, 7.80, 1,  10, 255, 0.000
64015370, 5301502, 2017-01-01 09:00:00, 6.12240, 103.15440,   0,  11,   0, 35.95, 990.30, 7.80, 0,  11, 255, 0.000
64015370, 5301502, 2017-01-01 10:00:00, 6.10740, 103.15600,   0,  12,   1, 35.95, 990.40, 7.80, 0,   1, 255, 0.000
64015370, 5301502, 2017-01-01 11:00:00, 6.08640, 103.15740,   0,  11,   1, 35.95, 991.30, 7.80, 0,  10, 255, 0.000
64015370, 5301502, 2017-01-01 12:00:00, 6.06120, 103.15880,   0,  11,   1, 35.95, 991.30, 8.20, 0,  14, 255, 0.000
64015370, 5301502, 2017-01-01 13:00:00, 6.03580, 103.15880,   0,  11,   2, 35.95, 990.20, 8.40, 0,  11, 255, 0.000
64015370, 5301502, 2017-01-01 14:00:00, 6.01120, 103.15800,   0,  11,   2, 35.95, 996.50, 8.40, 0,   8, 255, 0.000
64015370, 5301502, 2017-01-01 15:00:00, 5.98740, 103.15720,   0,  11,   1, 35.95, 996.60, 8.40, 0,   9, 255, 0.000
64015370, 5301502, 2017-01-01 17:00:00, 5.94720, 103.15360,   0,  11,   1, 35.95, 999.00, 8.20, 0,  11, 255, 0.000
64015370, 5301502, 2017-01-01 18:00:00, 5.93080, 103.15080,   0,  11,   1, 35.95, 998.90, 8.00, 0,  11, 255, 0.000
64015370, 5301502, 2017-01-01 19:00:00, 5.91580, 103.14800,   0,  11,   1, 35.95, 998.00, 8.00, 0,  11, 255, 0.000
64015370, 5301502, 2017-01-01 20:00:00, 5.90180, 103.14420,   0,  11,   1, 35.95, 997.40, 8.20, 0,  12, 255, 0.000
64015370, 5301502, 2017-01-01 21:00:00, 5.89100, 103.13860,   0,  11,   1, 35.95, 996.80, 8.00, 0,   8, 255, 0.000
64015370, 5301502, 2017-01-01 22:00:00, 5.88240, 103.13180,   0,  11,   2, 35.95, 995.00, 8.20, 0,  12, 255, 0.000
64015370, 5301502, 2017-01-01 23:00:00, 5.87540, 103.12080,   0,  11,   1, 35.95, 994.50, 8.20, 0,  10, 255, 0.000
64015370, 5301502, 2017-01-02 00:00:00, 5.87180, 103.11360,   0,  11,   1, 35.95, 997.20, 8.20, 0,   9, 255, 0.000
64015370, 5301502, 2017-01-02 01:00:00, 5.86680, 103.10500,   0,  11,   1, 35.95, 996.50, 8.20, 0,  10, 255, 0.000
64015370, 5301502, 2017-01-02 02:00:00, 5.86380, 103.09580,   0,  12,   1, 35.95, 993.30, 8.20, 0,   7, 255, 0.000
64015370, 5301502, 2017-01-02 03:00:00, 5.86020, 103.08720,   0,  11,   1, 35.95, 993.00, 8.20, 2,  12, 255, 0.000
64015370, 5301502, 2017-01-02 04:00:00, 5.85520, 103.07940,   0,  10,   1, 35.95, 993.30, 8.20, 0,   9, 255, 0.000
64015370, 5301502, 2017-01-02 05:00:00, 5.84900, 103.07260,   0,  11,   1, 35.95, 988.60, 8.40, 0,  14, 255, 0.000
64015370, 5301502, 2017-01-02 06:00:00, 5.84520, 103.06840,   0,  11,   1, 35.95, 987.00, 8.20, 0,  11, 255, 0.000
64015370, 5301502, 2017-01-02 07:00:00, 5.84120, 103.06680,   0,  11,   1, 35.95, 991.70, 8.00, 0,   4, 255, 0.000
64015370, 5301502, 2017-01-02 08:00:00, 5.83520, 103.06560,   0,  11,   1, 35.95, 989.10, 8.00, 0,   8, 255, 0.000
64015370, 5301502, 2017-01-02 09:00:00, 5.82740, 103.06480,   0,  11,   1, 35.95, 991.40, 8.00, 0,   8, 255, 0.000
64015370, 5301502, 2017-01-02 10:00:00, 5.81520, 103.06680,   0,  12,   1, 35.95, 990.70, 8.00, 0,  26, 255, 0.000
64015370, 5301502, 2017-01-02 11:00:00, 5.79960, 103.06960,   0,  11,   1, 35.95, 987.00, 7.80, 0,  11, 255, 0.000
64015370, 5301502, 2017-01-02 12:00:00, 5.78140, 103.07260,   0,  11,   1, 35.95, 987.50, 7.80, 0,  11, 255, 0.000
64015370, 5301502, 2017-01-02 13:00:00, 5.76060, 103.07280,   0,  11,   1, 35.95, 993.10, 7.80, 0,  10, 255, 0.000
64015370, 5301502, 2017-01-02 14:00:00, 5.74180, 103.06820,   0,  11,   1, 35.95, 992.80, 7.80, 0,   9, 255, 0.000
64015370, 5301502, 2017-01-02 15:00:00, 5.74020, 103.06040,   0,  11,   1, 35.95, 996.70, 7.80, 0,  10, 255, 0.000
64015370, 5301502, 2017-01-02 16:00:00, 5.74500, 103.05200,   0,  11,   2, 35.95, 996.80, 7.80, 0,  11, 255, 0.000
64015370, 5301502, 2017-01-02 17:00:00, 5.75180, 103.04160,   0,  11,   1, 35.95, 997.40, 7.80, 0,   8, 255, 0.000
64015370, 5301502, 2017-01-02 18:00:00, 5.75780, 103.03360,   0,  12,   1, 35.95, 996.90, 7.80, 0,   9, 255, 0.000
64015370, 5301502, 2017-01-02 19:00:00, 5.75740, 103.03040,   0,  11,   1, 35.95, 996.60, 7.80, 0,   8, 255, 0.000
64015370, 5301502, 2017-01-02 20:00:00, 5.75620, 103.02720,   0,  11,   1, 35.95, 995.80, 7.60, 0,  16, 255, 0.000
64015370, 5301502, 2017-01-02 21:00:00, 5.75580, 103.02680,   0,  11,   1, 35.95, 995.40, 7.60, 0,   7, 255, 0.000
64015370, 5301502, 2017-01-02 23:00:00, 5.75580, 103.02680,   0,  11,   1, 35.95, 978.30, 7.40, 0,   4, 255, 0.000
64015370, 5301502, 2017-01-03 00:00:00, 5.75580, 103.02680,   0,  11,   1, 35.95, 958.20, 7.40, 0,  17, 255, 0.000
64015370, 5301502, 2017-01-03 01:00:00, 5.75580, 103.02680,   0,  11,   1, 35.95, 962.00, 7.40, 0,   9, 255, 0.000
64015370, 5301502, 2017-01-03 02:00:00, 5.75580, 103.02680,   0,  12,   1, 35.95, 954.80, 7.40, 0,   8, 255, 0.000
64015370, 5301502, 2017-01-03 03:00:00, 5.75580, 103.02680,   0,  11,   1, 35.95, 950.30, 7.40, 0,  13, 255, 0.000
64015370, 5301502, 2017-01-03 04:00:00, 5.75580, 103.02680,   0,  11,   1, 35.95, 948.20, 7.20, 0,  11, 255, 0.000
64015370, 5301502, 2017-01-03 05:00:00, 5.75580, 103.02680,   0,  10,   1, 35.95, 954.20, 7.40, 0,  66, 255, 0.000
64015370, 5301502, 2017-01-03 06:00:00, 5.75580, 103.02660,   0,  11,   1, 35.95, 946.90, 7.20, 0,  11, 255, 0.000
64015370, 5301502, 2017-01-03 07:00:00, 5.75580, 103.02680,   0,  11,   1, 35.95, 995.50, 8.00, 0,   8, 255, 0.000
